Home   Weather   Pudukkottai   Past weeks

Flag for India Past Weather in Pudukkottai, Tamil Nadu, India — Yesterday and Last 2 Weeks

Now
93 °F

Scattered clouds.


Feels Like: 99 °F
Forecast: 76 / 93 °F
Wind: 5 mph from Northwest

Location: Tiruchchirapalli

Current Time: Sep 28, 2016 at 5:28:52 PM

Latest Report: Sep 28, 2016 at 5:00 PM


Visibility: 4 mi

Pressure: 29.62 "Hg

Humidity: 47%

Dew Point: 70 °F

Location of PudukkottaiLocation

Past Weather in Pudukkottai — Graph

°F

Pudukkottai Temperature Yesterday

Maximum temperature yesterday: 99 °F (at 2:30 PM)
Minimum temperature yesterday: 82 °F (at 5:30 AM)
Average temperature yesterday: 89 °F

High & Low Weather Summary for the Past Weeks

 TemperatureHumidityPressure
High102 °F (Sep 16, 2:00 PM)84% (Sep 15, 11:30 PM)29.83 "Hg (Sep 15, 11:30 PM)
Low79 °F (Sep 16, 6:00 AM)31% (Sep 16, 2:00 PM)29.53 "Hg (Sep 18, 9:30 AM)
Average88 °F54%29.71 "Hg
* Reported Sep 13 3:30 PM — Sep 28 4:00 PM, Pudukkottai, Weather by CustomWeather, © 2016

Note: Actual official high and low records may vary slightly from our data, if they occured in-between our weather recording intervals... More about our weather records

Advertising

Pudukkottai Weather History for the Previous 24 Hours

Scroll right to see more
 ConditionsComfort  
Time TempWeatherWind HumidityBarometerVisibility
4:00 PM
Wed, Sep 28
95 °FScattered clouds.5 mph44%29.62 "Hg4 mi
3:30 PM95 °FScattered clouds.5 mph44%29.62 "Hg4 mi
3:00 PM95 °FScattered clouds.7 mph44%29.62 "Hg4 mi
2:30 PM95 °FScattered clouds.12 mph44%29.65 "Hg4 mi
2:00 PM95 °FScattered clouds.9 mph50%29.65 "Hg4 mi
1:30 PM93 °FBroken clouds.12 mph49%29.68 "Hg4 mi
1:00 PM91 °FBroken clouds.12 mph52%29.71 "Hg4 mi
12:30 PM90 °FBroken clouds.10 mph52%29.71 "Hg4 mi
12:00 PM90 °FBroken clouds.9 mph52%29.74 "Hg4 mi
11:30 AM90 °FBroken clouds.10 mph52%29.77 "Hg4 mi
11:00 AM88 °FBroken clouds.10 mph59%29.77 "Hg4 mi
10:30 AM86 °FBroken clouds.9 mph66%29.77 "Hg4 mi
10:00 AM86 °FBroken clouds.10 mph62%29.80 "Hg4 mi
9:30 AM84 °FDrizzle. Broken clouds.9 mph66%29.80 "Hg3 mi
9:00 AM84 °FBroken clouds.12 mph66%29.80 "Hg4 mi
8:35 AM84 °FWarm.No wind66%29.80 "HgN/A
8:30 AM84 °FBroken clouds.10 mph66%29.80 "Hg4 mi
8:00 AM84 °FScattered clouds.9 mph66%29.77 "Hg4 mi
7:30 AM82 °FScattered clouds.7 mph70%29.77 "Hg4 mi
7:00 AM82 °FScattered clouds.6 mph70%29.77 "Hg4 mi
6:30 AM81 °FPassing clouds.5 mph74%29.74 "Hg4 mi
6:00 AM81 °FPassing clouds.5 mph74%29.74 "Hg4 mi
5:30 AM81 °FPassing clouds.5 mph74%29.74 "Hg4 mi
5:00 AM82 °FPassing clouds.3 mph74%29.74 "Hg4 mi
4:30 AM82 °FPassing clouds.3 mph74%29.71 "Hg4 mi
4:00 AM82 °FPassing clouds.3 mph74%29.71 "Hg4 mi
3:30 AM82 °FPassing clouds.3 mph79%29.71 "Hg4 mi
3:00 AM82 °FPassing clouds.3 mph74%29.71 "Hg4 mi
2:30 AM82 °FPassing clouds.3 mph74%29.71 "Hg4 mi
2:00 AM84 °FPassing clouds.3 mph70%29.74 "Hg4 mi
1:30 AM84 °FPassing clouds.3 mph70%29.74 "Hg4 mi
1:00 AM84 °FPassing clouds.3 mph70%29.74 "Hg4 mi
12:30 AM84 °FPassing clouds.5 mph70%29.74 "Hg4 mi
12:00 AM84 °FPassing clouds.3 mph70%29.77 "Hg4 mi
11:30 PM
Tue, Sep 27
86 °FPassing clouds.3 mph66%29.77 "Hg4 mi
11:00 PM86 °FPassing clouds.3 mph66%29.77 "Hg4 mi
10:30 PM88 °FPassing clouds.5 mph62%29.77 "Hg4 mi
10:00 PM90 °FPassing clouds.6 mph59%29.77 "Hg4 mi
9:30 PM90 °FPassing clouds.9 mph59%29.77 "Hg4 mi
9:00 PM90 °FPassing clouds.7 mph59%29.74 "Hg4 mi
8:30 PM90 °FPassing clouds.7 mph55%29.71 "Hg4 mi
8:00 PM91 °FPassing clouds.6 mph46%29.71 "Hg4 mi
7:30 PM91 °FPassing clouds.5 mph46%29.68 "Hg4 mi
7:00 PM91 °FPassing clouds.6 mph49%29.68 "Hg4 mi
6:30 PM91 °FScattered clouds.7 mph49%29.68 "Hg4 mi
6:00 PM93 °FScattered clouds.9 mph47%29.65 "Hg4 mi
5:30 PM95 °FScattered clouds.7 mph44%29.65 "Hg4 mi
5:00 PM95 °FScattered clouds.9 mph44%29.65 "Hg4 mi
Weather by CustomWeather, © 2016

See weather overviewHow to use our weather pages